• In Netherlands
  • List of Countries
  • For 7 days
  • Water Temperature
  • Satellite Maps
  • Weather Map
  • Weather Widgets
  • user-avatar
    Login

    Hourly Weather Lowech

    Today, 18 October, Wednesday

    Time Temperature Precipitation Wind Pressure Humidity
    00:00 +18°C° 0 mm 1 mps 742 mmHg 54%
    01:00 +16°C° 0 mm 1 mps 742 mmHg 55%
    02:00 +16°C° 0 mm 1 mps 742 mmHg 55%
    03:00 +16°C° 0 mm 1 mps 742 mmHg 56%
    04:00 +16°C° 0 mm 1 mps 742 mmHg 56%
    05:00 +15°C° 0 mm 1 mps 742 mmHg 56%
    06:00 +16°C° 0 mm 1 mps 742 mmHg 56%
    07:00 +16°C° 0 mm 1 mps 741 mmHg 56%
    08:00 +18°C° 0 mm 1 mps 742 mmHg 52%
    09:00 +20°C° 0 mm 1 mps 741 mmHg 47%
    10:00 +22°C° 0 mm 1 mps 741 mmHg 42%
    11:00 +22°C° 0 mm 0 mps 741 mmHg 36%
    12:00 +25°C° 0 mm 1 mps 741 mmHg 35%
    13:00 +26°C° 0 mm 1 mps 741 mmHg 33%
    14:00 +27°C° 0 mm 1 mps 740 mmHg 31%
    15:00 +25°C° 0 mm 1 mps 740 mmHg 35%
    16:00 +24°C° 0 mm 1 mps 739 mmHg 39%
    17:00 +23°C° 0 mm 1 mps 739 mmHg 43%
    18:00 +22°C° 0 mm 1 mps 739 mmHg 45%
    19:00 +21°C° 0 mm 1 mps 739 mmHg 47%
    20:00 +18°C° 0 mm 2 mps 739 mmHg 49%
    21:00 +19°C° 0 mm 1 mps 739 mmHg 50%
    22:00 +18°C° 0 mm 1 mps 739 mmHg 50%
    23:00 +18°C° 0 mm 1 mps 739 mmHg 51%

    Tomorrow, 19 October, Thursday

    Time Temperature Precipitation Wind Pressure Humidity
    00:00 +16°C° 0 mm 1 mps 739 mmHg 51%
    01:00 +16°C° 0 mm 1 mps 739 mmHg 51%
    02:00 +16°C° 0 mm 1 mps 739 mmHg 51%
    03:00 +16°C° 0 mm 1 mps 738 mmHg 52%
    04:00 +15°C° 0 mm 1 mps 738 mmHg 52%
    05:00 +15°C° 0 mm 1 mps 738 mmHg 53%
    06:00 +15°C° 0 mm 1 mps 738 mmHg 53%
    07:00 +16°C° 0 mm 1 mps 738 mmHg 53%
    08:00 +16°C° 0 mm 1 mps 738 mmHg 53%
    09:00 +20°C° 0 mm 1 mps 738 mmHg 47%
    10:00 +22°C° 0 mm 1 mps 738 mmHg 42%
    11:00 +24°C° 0 mm 1 mps 738 mmHg 36%
    12:00 +25°C° 0 mm 1 mps 738 mmHg 35%
    13:00 +25°C° 0 mm 1 mps 738 mmHg 33%
    14:00 +26°C° 0 mm 1 mps 737 mmHg 32%
    15:00 +25°C° 0 mm 1 mps 737 mmHg 36%
    16:00 +24°C° 0 mm 1 mps 737 mmHg 40%
    17:00 +22°C° 0 mm 1 mps 737 mmHg 44%
    18:00 +21°C° 0 mm 1 mps 737 mmHg 46%
    19:00 +20°C° 0 mm 1 mps 737 mmHg 48%
    20:00 +19°C° 0 mm 1 mps 737 mmHg 49%
    21:00 +19°C° 0 mm 1 mps 737 mmHg 51%
    22:00 +18°C° 0 mm 1 mps 737 mmHg 52%
    23:00 +18°C° 0 mm 1 mps 737 mmHg 53%

    Day after tomorrow, 20 October, Friday

    Time Temperature Precipitation Wind Pressure Humidity
    00:00 +18°C° 0 mm 1 mps 737 mmHg 53%
    01:00 +16°C° 0 mm 1 mps 737 mmHg 54%
    02:00 +16°C° 0 mm 1 mps 737 mmHg 55%
    03:00 +16°C° 0 mm 1 mps 737 mmHg 55%
    04:00 +15°C° 0 mm 1 mps 737 mmHg 55%
    05:00 +15°C° 0 mm 1 mps 737 mmHg 56%
    06:00 +16°C° 0 mm 1 mps 737 mmHg 55%
    07:00 +16°C° 0 mm 1 mps 737 mmHg 55%
    08:00 +18°C° 0 mm 1 mps 737 mmHg 54%
    09:00 +20°C° 0 mm 1 mps 738 mmHg 48%
    10:00 +22°C° 0 mm 1 mps 738 mmHg 43%
    11:00 +24°C° 0 mm 1 mps 738 mmHg 37%
    12:00 +25°C° 0 mm 2 mps 738 mmHg 36%
    13:00 +25°C° 0 mm 2 mps 738 mmHg 35%
    14:00 +26°C° 0 mm 2 mps 737 mmHg 34%
    15:00 +25°C° 0 mm 2 mps 737 mmHg 38%
    16:00 +24°C° 0 mm 1 mps 737 mmHg 42%
    17:00 +22°C° 0 mm 1 mps 737 mmHg 46%
    18:00 +21°C° 0 mm 1 mps 737 mmHg 49%
    19:00 +20°C° 0 mm 1 mps 738 mmHg 51%
    20:00 +19°C° 0 mm 1 mps 738 mmHg 53%
    21:00 +19°C° 0 mm 1 mps 738 mmHg 55%
    22:00 +18°C° 0 mm 1 mps 738 mmHg 56%
    23:00 +18°C° 0 mm 1 mps 739 mmHg 57%

    21 October, Saturday

    Time Temperature Precipitation Wind Pressure Humidity
    00:00 +16°C° 0 mm 1 mps 739 mmHg 58%
    01:00 +16°C° 0 mm 1 mps 739 mmHg 59%
    02:00 +16°C° 0 mm 1 mps 739 mmHg 59%
    03:00 +15°C° 0 mm 1 mps 739 mmHg 60%
    04:00 +15°C° 0 mm 1 mps 738 mmHg 60%
    05:00 +15°C° 0 mm 1 mps 738 mmHg 61%
    06:00 +15°C° 0 mm 1 mps 739 mmHg 59%
    07:00 +15°C° 0 mm 1 mps 739 mmHg 58%
    08:00 +16°C° 0 mm 1 mps 739 mmHg 57%
    09:00 +19°C° 0 mm 1 mps 739 mmHg 51%
    10:00 +20°C° 0 mm 1 mps 739 mmHg 45%
    11:00 +22°C° 0 mm 1 mps 740 mmHg 39%
    12:00 +23°C° 0 mm 1 mps 739 mmHg 39%
    13:00 +23°C° 0 mm 1 mps 739 mmHg 38%
    14:00 +24°C° 0 mm 2 mps 739 mmHg 37%
    15:00 +23°C° 0 mm 1 mps 739 mmHg 41%
    16:00 +22°C° 0 mm 1 mps 739 mmHg 45%
    17:00 +21°C° 0 mm 1 mps 739 mmHg 49%
    18:00 +20°C° 0 mm 1 mps 739 mmHg 52%
    19:00 +18°C° 0 mm 1 mps 739 mmHg 56%
    20:00 +16°C° 0 mm 1 mps 739 mmHg 59%
    21:00 +16°C° 0 mm 1 mps 739 mmHg 61%
    22:00 +15°C° 0 mm 1 mps 739 mmHg 63%
    23:00 +15°C° 0 mm 1 mps 740 mmHg 64%

    22 October, Sunday

    Time Temperature Precipitation Wind Pressure Humidity
    00:00 +15°C° 0 mm 1 mps 740 mmHg 66%
    01:00 +14°C° 0 mm 1 mps 740 mmHg 68%
    02:00 +14°C° 0 mm 1 mps 739 mmHg 69%
    03:00 +14°C° 0 mm 1 mps 739 mmHg 71%
    04:00 +13°C° 0 mm 1 mps 739 mmHg 73%
    05:00 +13°C° 0 mm 1 mps 739 mmHg 75%
    06:00 +13°C° 0 mm 1 mps 739 mmHg 74%
    07:00 +14°C° 0 mm 1 mps 739 mmHg 74%
    08:00 +14°C° 0 mm 1 mps 739 mmHg 73%
    09:00 +16°C° 0 mm 1 mps 739 mmHg 66%
    10:00 +19°C° 0 mm 1 mps 739 mmHg 59%
    11:00 +21°C° 0 mm 1 mps 739 mmHg 52%
    12:00 +21°C° 0 mm 2 mps 739 mmHg 49%
    13:00 +21°C° 0 mm 2 mps 738 mmHg 46%
    14:00 +23°C° 0 mm 2 mps 737 mmHg 43%
    15:00 +21°C° 0 mm 2 mps 737 mmHg 46%
    16:00 +20°C° 0 mm 2 mps 737 mmHg 49%
    17:00 +19°C° 0 mm 2 mps 736 mmHg 53%
    18:00 +18°C° 0 mm 2 mps 736 mmHg 56%
    19:00 +17°C° 0 mm 2 mps 736 mmHg 60%
    20:00 +16°C° 0 mm 2 mps 736 mmHg 64%
    21:00 +15°C° 0 mm 2 mps 736 mmHg 65%
    22:00 +15°C° 0 mm 2 mps 736 mmHg 67%
    23:00 +14°C° 0 mm 2 mps 736 mmHg 69%

    23 October, Monday

    Time Temperature Precipitation Wind Pressure Humidity
    00:00 +14°C° 0 mm 2 mps 735 mmHg 71%
    01:00 +14°C° 0 mm 2 mps 735 mmHg 72%
    02:00 +14°C° 0 mm 2 mps 735 mmHg 74%
    03:00 +14°C° 0 mm 2 mps 734 mmHg 76%
    04:00 +13°C° 0 mm 2 mps 734 mmHg 77%
    05:00 +13°C° 0 mm 2 mps 734 mmHg 79%
    06:00 +14°C° 0 mm 2 mps 734 mmHg 79%
    07:00 +14°C° 0 mm 2 mps 734 mmHg 78%
    08:00 +14°C° 0 mm 2 mps 734 mmHg 78%
    09:00 +15°C° 0 mm 2 mps 734 mmHg 73%
    10:00 +17°C° 0 mm 2 mps 733 mmHg 68%
    11:00 +18°C° 0 mm 2 mps 733 mmHg 63%
    12:00 +18°C° 0 mm 2 mps 733 mmHg 60%
    13:00 +19°C° 0 mm 3 mps 733 mmHg 57%
    14:00 +20°C° 0 mm 3 mps 732 mmHg 54%
    15:00 +19°C° 0 mm 3 mps 732 mmHg 57%
    16:00 +18°C° 0 mm 3 mps 732 mmHg 60%
    17:00 +18°C° 0 mm 3 mps 732 mmHg 62%
    18:00 +17°C° 0 mm 3 mps 732 mmHg 65%
    19:00 +16°C° 0 mm 3 mps 732 mmHg 68%
    20:00 +14°C° 0 mm 4 mps 732 mmHg 70%
    21:00 +14°C° 0 mm 4 mps 732 mmHg 73%
    22:00 +14°C° 0 mm 4 mps 732 mmHg 75%
    23:00 +13°C° 0 mm 4 mps 733 mmHg 77%
    Show more